| time (UTC) | temp F | wind direction | speed MPH | gust MPH | rain 1hr in | rain 24hr in | rain mn in | humidity % | barometer mb |
| 20260506144254 | 57 | 342 | 1.0 | 2.0 | 0.00 | 0.15 | 0.15 | 47 | 990.8 |
| 20260506143752 | 58 | 337 | 1.0 | 1.0 | 0.00 | 0.15 | 0.15 | 56 | 990.8 |
| 20260506143248 | 57 | 344 | 0.0 | 0.0 | 0.00 | 0.15 | 0.15 | 55 | 990.6 |
| 20260506142747 | 58 | 7 | 1.0 | 1.0 | 0.00 | 0.15 | 0.15 | 50 | 990.6 |
| 20260506142245 | 58 | 329 | 1.0 | 2.0 | 0.00 | 0.15 | 0.15 | 55 | 990.7 |
| 20260506141743 | 57 | 267 | 0.0 | 1.0 | 0.00 | 0.15 | 0.15 | 59 | 990.7 |
| 20260506141241 | 56 | 85 | 1.0 | 1.0 | 0.00 | 0.15 | 0.15 | 56 | 990.6 |
| 20260506140738 | 56 | 8 | 0.0 | 1.0 | 0.00 | 0.15 | 0.15 | 56 | 990.5 |
| 20260506140235 | 55 | 252 | 1.0 | 1.0 | 0.00 | 0.15 | 0.15 | 60 | 990.7 |
| 20260506135731 | 54 | 54 | 0.0 | 0.0 | 0.00 | 0.15 | 0.15 | 62 | 990.6 |
| 20260506135228 | 54 | 41 | 0.0 | 0.0 | 0.00 | 0.15 | 0.15 | 63 | 990.3 |
| 20260506134725 | 55 | 22 | 3.0 | 4.0 | 0.00 | 0.15 | 0.15 | 57 | 990.6 |
| 20260506134221 | 54 | 333 | 0.0 | 1.0 | 0.00 | 0.15 | 0.15 | 65 | 990.2 |
| 20260506133719 | 55 | 2 | 1.0 | 1.0 | 0.00 | 0.15 | 0.15 | 66 | 990.1 |
| 20260506133215 | 55 | 343 | 0.0 | 0.0 | 0.00 | 0.15 | 0.15 | 68 | 990.1 |
| 20260506132712 | 55 | 147 | 0.0 | 0.0 | 0.00 | 0.15 | 0.15 | 69 | 990.2 |
| 20260506132209 | 53 | 348 | 0.0 | 1.0 | 0.00 | 0.15 | 0.15 | 76 | 990.0 |
| 20260506131707 | 52 | 2 | 0.0 | 0.0 | 0.00 | 0.15 | 0.15 | 79 | 989.9 |
| 20260506131203 | 51 | 6 | 0.0 | 0.0 | 0.00 | 0.15 | 0.15 | 79 | 989.8 |
| 20260506130700 | 51 | 293 | 0.0 | 1.0 | 0.00 | 0.15 | 0.15 | 81 | 989.8 |
| 20260506130157 | 51 | 176 | 1.0 | 1.0 | 0.00 | 0.15 | 0.15 | 82 | 990.0 |
| 20260506125655 | 50 | 291 | 0.0 | 1.0 | 0.00 | 0.15 | 0.15 | 86 | 989.6 |
| 20260506125152 | 49 | 328 | 0.0 | 0.0 | 0.00 | 0.15 | 0.15 | 87 | 989.6 |
| 20260506124650 | 49 | 328 | 0.0 | 0.0 | 0.00 | 0.15 | 0.15 | 87 | 989.5 |
| 20260506124148 | 49 | 281 | 0.0 | 1.0 | 0.00 | 0.15 | 0.15 | 89 | 989.7 |
| 20260506123645 | 48 | 311 | 0.0 | 1.0 | 0.00 | 0.15 | 0.15 | 91 | 989.3 |
| 20260506123144 | 47 | 336 | 0.0 | 0.0 | 0.00 | 0.15 | 0.15 | 93 | 989.3 |
| 20260506122640 | 47 | 307 | 0.0 | 0.0 | 0.00 | 0.15 | 0.15 | 93 | 989.2 |
| 20260506122138 | 46 | 253 | 1.0 | 1.0 | 0.00 | 0.15 | 0.15 | 93 | 989.2 |
| 20260506121635 | 46 | 271 | 1.0 | 1.0 | 0.00 | 0.15 | 0.15 | 94 | 989.2 |
| 20260506121131 | 46 | 316 | 0.0 | 0.0 | 0.00 | 0.15 | 0.15 | 95 | 989.0 |
| 20260506120629 | 46 | 201 | 0.0 | 1.0 | 0.00 | 0.15 | 0.15 | 95 | 988.8 |
| 20260506120126 | 46 | 302 | 0.0 | 0.0 | 0.00 | 0.15 | 0.15 | 95 | 988.9 |
| 20260506115625 | 45 | 332 | 0.0 | 0.0 | 0.00 | 0.15 | 0.15 | 95 | 988.8 |
| 20260506115123 | 45 | 246 | 1.0 | 1.0 | 0.00 | 0.15 | 0.15 | 96 | 988.6 |
| 20260506114620 | 45 | 323 | 0.0 | 0.0 | 0.00 | 0.15 | 0.15 | 96 | 988.8 |
| 20260506114118 | 45 | 315 | 0.0 | 0.0 | 0.00 | 0.15 | 0.15 | 96 | 988.8 |
| 20260506113616 | 45 | 233 | 1.0 | 2.0 | 0.00 | 0.15 | 0.15 | 96 | 988.9 |
| 20260506113113 | 45 | 313 | 2.0 | 2.0 | 0.00 | 0.15 | 0.15 | 96 | 988.7 |
| 20260506112609 | 45 | 291 | 0.0 | 0.0 | 0.00 | 0.15 | 0.15 | 96 | 988.8 |
| 20260506112107 | 44 | 254 | 1.0 | 1.0 | 0.00 | 0.15 | 0.15 | 96 | 988.6 |
| 20260506111604 | 44 | 249 | 1.0 | 1.0 | 0.00 | 0.15 | 0.15 | 97 | 988.8 |
| 20260506111102 | 44 | 308 | 1.0 | 2.0 | 0.00 | 0.15 | 0.15 | 97 | 988.3 |
| 20260506110559 | 44 | 271 | 1.0 | 1.0 | 0.00 | 0.15 | 0.15 | 97 | 988.5 |
| 20260506110056 | 44 | 268 | 1.0 | 1.0 | 0.00 | 0.15 | 0.15 | 97 | 988.2 |
| 20260506105552 | 44 | 253 | 2.0 | 2.0 | 0.00 | 0.15 | 0.15 | 97 | 987.9 |
| 20260506105050 | 44 | 296 | 0.0 | 0.0 | 0.00 | 0.15 | 0.15 | 97 | 987.7 |
| 20260506104548 | 44 | 258 | 1.0 | 1.0 | 0.00 | 0.15 | 0.15 | 97 | 987.7 |
| 20260506104045 | 44 | 253 | 1.0 | 1.0 | 0.00 | 0.15 | 0.15 | 97 | 987.5 |
| 20260506103542 | 44 | 257 | 1.0 | 1.0 | 0.00 | 0.15 | 0.15 | 98 | 987.5 |
| 20260506103039 | 45 | 266 | 1.0 | 1.0 | 0.00 | 0.15 | 0.15 | 98 | 987.5 |
| 20260506102537 | 45 | 280 | 0.0 | 0.0 | 0.00 | 0.15 | 0.15 | 98 | 987.3 |
| 20260506102034 | 44 | 314 | 0.0 | 0.0 | 0.00 | 0.15 | 0.15 | 98 | 987.6 |
| 20260506101531 | 45 | 317 | 0.0 | 0.0 | 0.00 | 0.15 | 0.15 | 98 | 987.5 |
| 20260506101028 | 45 | 235 | 2.0 | 2.0 | 0.00 | 0.15 | 0.15 | 98 | 987.8 |
| 20260506100526 | 45 | 252 | 2.0 | 2.0 | 0.00 | 0.15 | 0.15 | 98 | 987.5 |
| 20260506100024 | 45 | 302 | 0.0 | 0.0 | 0.00 | 0.15 | 0.15 | 98 | 987.2 |
| 20260506095523 | 45 | 304 | 0.0 | 0.0 | 0.00 | 0.15 | 0.15 | 98 | 987.3 |
| 20260506095018 | 45 | 249 | 1.0 | 1.0 | 0.00 | 0.15 | 0.15 | 98 | 987.1 |
| 20260506094517 | 45 | 328 | 0.0 | 0.0 | 0.00 | 0.15 | 0.15 | 98 | 987.0 |
| 20260506094014 | 45 | 321 | 0.0 | 0.0 | 0.00 | 0.15 | 0.15 | 98 | 987.2 |
| 20260506093512 | 45 | 321 | 0.0 | 0.0 | 0.00 | 0.15 | 0.15 | 98 | 987.3 |
| 20260506093009 | 45 | 321 | 0.0 | 0.0 | 0.00 | 0.15 | 0.15 | 98 | 987.3 |
| 20260506092507 | 45 | 319 | 0.0 | 0.0 | 0.00 | 0.15 | 0.15 | 98 | 987.6 |
| 20260506092003 | 45 | 279 | 0.0 | 0.0 | 0.00 | 0.15 | 0.15 | 98 | 987.5 |
| 20260506091502 | 45 | 296 | 0.0 | 0.0 | 0.00 | 0.15 | 0.15 | 98 | 987.7 |
| 20260506090958 | 45 | 304 | 0.0 | 0.0 | 0.00 | 0.15 | 0.15 | 98 | 987.6 |
| 20260506090456 | 45 | 319 | 0.0 | 0.0 | 0.00 | 0.15 | 0.15 | 98 | 987.6 |
| 20260506085952 | 45 | 324 | 0.0 | 0.0 | 0.00 | 0.15 | 0.15 | 98 | 987.6 |
| 20260506085450 | 45 | 313 | 0.0 | 0.0 | 0.05 | 0.15 | 0.15 | 98 | 987.9 |
| 20260506084946 | 44 | 276 | 0.0 | 0.0 | 0.05 | 0.15 | 0.15 | 98 | 987.6 |
| 20260506084443 | 44 | 347 | 0.0 | 0.0 | 0.00 | 0.14 | 0.14 | 98 | 987.5 |
| 20260506083939 | 45 | 322 | 0.0 | 0.0 | 0.00 | 0.14 | 0.14 | 98 | 987.8 |
| 20260506083437 | 45 | 328 | 0.0 | 0.0 | 0.00 | 0.14 | 0.14 | 98 | 988.0 |
| 20260506082933 | 45 | 331 | 0.0 | 0.0 | 0.00 | 0.14 | 0.14 | 98 | 987.8 |
| 20260506082431 | 45 | 325 | 0.0 | 0.0 | 0.07 | 0.14 | 0.14 | 98 | 987.6 |
| 20260506081926 | 45 | 332 | 0.0 | 0.0 | 0.07 | 0.14 | 0.14 | 98 | 987.1 |
| 20260506081425 | 45 | 332 | 0.0 | 0.0 | 0.00 | 0.13 | 0.13 | 98 | 987.0 |
| 20260506080922 | 45 | 333 | 0.0 | 0.0 | 0.00 | 0.13 | 0.13 | 98 | 987.4 |
| 20260506080418 | 45 | 332 | 0.0 | 0.0 | 0.00 | 0.13 | 0.13 | 98 | 987.5 |
| 20260506073403 | 45 | 339 | 0.0 | 0.0 | 0.14 | 0.12 | 0.12 | 98 | 987.5 |
| 20260506072859 | 45 | 330 | 0.0 | 0.0 | 0.07 | 0.11 | 0.11 | 98 | 987.6 |
| 20260506072357 | 46 | 348 | 0.0 | 0.0 | 0.00 | 0.10 | 0.10 | 98 | 987.7 |
| 20260506071854 | 45 | 340 | 0.0 | 0.0 | 0.00 | 0.10 | 0.10 | 98 | 987.8 |
| 20260506071352 | 45 | 341 | 0.0 | 0.0 | 0.00 | 0.10 | 0.10 | 98 | 987.8 |
| 20260506070849 | 45 | 325 | 0.0 | 0.0 | 0.00 | 0.10 | 0.10 | 98 | 987.6 |
| 20260506070346 | 45 | 334 | 0.0 | 0.0 | 0.05 | 0.10 | 0.10 | 98 | 987.7 |
| 20260506062323 | 45 | 304 | 0.0 | 0.0 | 0.00 | 0.08 | 0.08 | 98 | 987.9 |
| 20260506061819 | 45 | 327 | 0.0 | 0.0 | 0.05 | 0.08 | 0.08 | 98 | 987.8 |
| 20260506061316 | 46 | 333 | 0.0 | 0.0 | 0.05 | 0.08 | 0.08 | 97 | 987.5 |
| 20260506060814 | 46 | 333 | 0.0 | 0.0 | 0.00 | 0.07 | 0.07 | 98 | 987.6 |
| 20260506060312 | 46 | 333 | 0.0 | 0.0 | 0.00 | 0.07 | 0.07 | 97 | 987.5 |
| 20260506051243 | 48 | 308 | 0.0 | 1.0 | 0.05 | 0.04 | 0.04 | 98 | 987.9 |
| 20260506050741 | 48 | 341 | 0.0 | 0.0 | 0.05 | 0.04 | 0.04 | 98 | 987.7 |
| 20260506050239 | 48 | 313 | 0.0 | 0.0 | 0.07 | 0.03 | 0.03 | 98 | 987.7 |
| 20260506044729 | 48 | 320 | 0.0 | 0.0 | 0.05 | 0.02 | 0.02 | 98 | 987.7 |
| 20260506044227 | 48 | 311 | 0.0 | 0.0 | 0.00 | 0.01 | 0.01 | 98 | 987.8 |
| 20260506043724 | 48 | 320 | 0.0 | 0.0 | 0.07 | 0.01 | 0.01 | 98 | 987.6 |
| 20260506043221 | 48 | 318 | 0.0 | 0.0 | 0.07 | 0.01 | 0.01 | 98 | 987.8 |
| 20260506042720 | 48 | 322 | 0.0 | 0.0 | 0.00 | 0.00 | 0.00 | 98 | 987.5 |
| 20260506042218 | 48 | 323 | 0.0 | 0.0 | 0.00 | 0.00 | 0.00 | 98 | 987.8 |
| 20260506041716 | 48 | 302 | 0.0 | 1.0 | 0.00 | 0.00 | 0.00 | 98 | 987.8 |
| 20260506041213 | 48 | 329 | 0.0 | 0.0 | 0.00 | 0.00 | 0.00 | 98 | 987.7 |
| 20260506040710 | 48 | 309 | 0.0 | 0.0 | 0.00 | 0.00 | 0.00 | 98 | 987.6 |
| 20260506040207 | 48 | 343 | 0.0 | 0.0 | 0.00 | 0.00 | 0.00 | 98 | 987.7 |
| 20260506035704 | 48 | 325 | 0.0 | 0.0 | 0.00 | 0.69 | 0.69 | 98 | 987.4 |
| 20260506035201 | 48 | 330 | 0.0 | 0.0 | 0.00 | 0.69 | 0.69 | 98 | 987.8 |
| 20260506034657 | 48 | 337 | 0.0 | 0.0 | 0.00 | 0.69 | 0.69 | 98 | 987.6 |
| 20260506034155 | 48 | 324 | 0.0 | 0.0 | 0.07 | 0.69 | 0.69 | 98 | 987.6 |
| 20260506033652 | 48 | 312 | 0.0 | 0.0 | 0.07 | 0.69 | 0.69 | 98 | 987.6 |
| 20260506033149 | 48 | 324 | 0.0 | 0.0 | 0.00 | 0.68 | 0.68 | 98 | 987.4 |
| 20260506032646 | 48 | 316 | 0.0 | 0.0 | 0.00 | 0.68 | 0.68 | 98 | 987.6 |
| 20260506032143 | 48 | 357 | 0.0 | 0.0 | 0.05 | 0.68 | 0.68 | 98 | 987.8 |
| 20260506031640 | 48 | 322 | 0.0 | 0.0 | 0.05 | 0.68 | 0.68 | 98 | 987.9 |
| 20260506031136 | 48 | 242 | 1.0 | 1.0 | 0.07 | 0.67 | 0.67 | 98 | 987.9 |
| 20260506030636 | 48 | 318 | 0.0 | 0.0 | 0.07 | 0.67 | 0.67 | 98 | 988.0 |
| 20260506030132 | 48 | 315 | 0.0 | 0.0 | 0.05 | 0.66 | 0.66 | 98 | 988.1 |
| 20260506025629 | 48 | 305 | 0.0 | 0.0 | 0.05 | 0.66 | 0.66 | 98 | 988.2 |
| 20260506025125 | 48 | 267 | 1.0 | 1.0 | 0.00 | 0.65 | 0.65 | 98 | 988.1 |
| 20260506024623 | 48 | 317 | 0.0 | 0.0 | 0.07 | 0.65 | 0.65 | 98 | 988.0 |
| 20260506024119 | 48 | 266 | 0.0 | 1.0 | 0.07 | 0.65 | 0.65 | 98 | 988.2 |
| 20260506023615 | 48 | 267 | 0.0 | 0.0 | 0.00 | 0.64 | 0.64 | 97 | 987.9 |
| 20260506023113 | 48 | 2 | 0.0 | 0.0 | 0.05 | 0.64 | 0.64 | 97 | 987.9 |
| 20260506022610 | 48 | 320 | 0.0 | 0.0 | 0.12 | 0.64 | 0.64 | 97 | 987.8 |
| 20260506022107 | 48 | 305 | 0.0 | 0.0 | 0.12 | 0.63 | 0.63 | 97 | 988.0 |
| 20260506021605 | 48 | 304 | 0.0 | 1.0 | 0.05 | 0.62 | 0.62 | 97 | 988.0 |
| 20260506021102 | 48 | 259 | 0.0 | 1.0 | 0.12 | 0.62 | 0.62 | 97 | 988.1 |
| 20260506020559 | 48 | 242 | 0.0 | 1.0 | 0.12 | 0.61 | 0.61 | 97 | 987.8 |
| 20260506020056 | 48 | 245 | 0.0 | 1.0 | 0.17 | 0.60 | 0.60 | 97 | 988.0 |
| 20260506015554 | 48 | 231 | 0.0 | 1.0 | 0.19 | 0.59 | 0.59 | 97 | 987.7 |
| 20260506015050 | 48 | 267 | 0.0 | 1.0 | 0.12 | 0.58 | 0.58 | 97 | 987.8 |
| 20260506014548 | 48 | 264 | 0.0 | 0.0 | 0.12 | 0.56 | 0.56 | 97 | 987.6 |
| 20260506014043 | 48 | 249 | 1.0 | 2.0 | 0.12 | 0.55 | 0.55 | 97 | 987.5 |
| 20260506013542 | 49 | 306 | 0.0 | 0.0 | 0.07 | 0.54 | 0.54 | 97 | 987.6 |
| 20260506013038 | 49 | 263 | 0.0 | 0.0 | 0.05 | 0.53 | 0.53 | 97 | 987.7 |
| 20260506012534 | 48 | 275 | 0.0 | 0.0 | 0.05 | 0.53 | 0.53 | 97 | 987.6 |
| 20260506012031 | 49 | 273 | 1.0 | 1.0 | 0.07 | 0.52 | 0.52 | 97 | 987.5 |
| 20260506011529 | 49 | 256 | 1.0 | 1.0 | 0.07 | 0.52 | 0.52 | 97 | 987.3 |
| 20260506011025 | 49 | 255 | 1.0 | 1.0 | 0.00 | 0.51 | 0.51 | 97 | 987.3 |
| 20260506010525 | 49 | 321 | 0.0 | 0.0 | 0.05 | 0.51 | 0.51 | 97 | 987.1 |
| 20260506010021 | 49 | 330 | 0.0 | 0.0 | 0.05 | 0.51 | 0.51 | 96 | 987.2 |
| 20260506005518 | 49 | 309 | 0.0 | 0.0 | 0.00 | 0.50 | 0.50 | 96 | 987.1 |
| 20260506005013 | 49 | 321 | 0.0 | 0.0 | 0.07 | 0.50 | 0.50 | 96 | 987.2 |
| 20260506004511 | 49 | 312 | 0.0 | 0.0 | 0.12 | 0.50 | 0.50 | 96 | 987.3 |
| 20260506004008 | 49 | 307 | 0.0 | 0.0 | 0.05 | 0.49 | 0.49 | 96 | 987.5 |
| 20260506003504 | 49 | 320 | 0.0 | 0.0 | 0.07 | 0.48 | 0.48 | 96 | 987.2 |
| 20260506003000 | 49 | 303 | 0.0 | 0.0 | 0.12 | 0.48 | 0.48 | 96 | 987.6 |
| 20260506002456 | 49 | 321 | 0.0 | 0.0 | 0.12 | 0.47 | 0.47 | 95 | 987.3 |
| 20260506001952 | 49 | 263 | 0.0 | 1.0 | 0.12 | 0.46 | 0.46 | 95 | 987.3 |
| 20260506001449 | 49 | 250 | 1.0 | 1.0 | 0.12 | 0.45 | 0.45 | 95 | 987.3 |
| 20260506000946 | 49 | 243 | 1.0 | 1.0 | 0.14 | 0.44 | 0.44 | 95 | 987.1 |
| 20260506000445 | 49 | 260 | 0.0 | 0.0 | 0.19 | 0.44 | 0.44 | 95 | 987.5 |
| 20260505235940 | 49 | 261 | 1.0 | 1.0 | 0.12 | 0.42 | 0.42 | 95 | 987.1 |
| 20260505235439 | 49 | 285 | 1.0 | 1.0 | 0.07 | 0.41 | 0.41 | 94 | 987.2 |
| 20260505234935 | 49 | 261 | 1.0 | 1.0 | 0.05 | 0.40 | 0.40 | 94 | 987.2 |
| 20260505234433 | 49 | 268 | 1.0 | 1.0 | 0.12 | 0.40 | 0.40 | 94 | 987.1 |
| 20260505233929 | 49 | 274 | 1.0 | 1.0 | 0.07 | 0.39 | 0.39 | 94 | 986.8 |
| 20260505233427 | 50 | 246 | 1.0 | 1.0 | 0.07 | 0.39 | 0.39 | 94 | 986.8 |
| 20260505232924 | 50 | 239 | 1.0 | 1.0 | 0.05 | 0.38 | 0.38 | 94 | 987.2 |
| 20260505232422 | 50 | 321 | 0.0 | 0.0 | 0.05 | 0.38 | 0.38 | 94 | 987.1 |
| 20260505231919 | 50 | 326 | 0.0 | 0.0 | 0.00 | 0.37 | 0.37 | 94 | 986.9 |
| 20260505231416 | 50 | 318 | 0.0 | 0.0 | 0.00 | 0.37 | 0.37 | 94 | 986.9 |
| 20260505230914 | 50 | 322 | 0.0 | 0.0 | 0.07 | 0.37 | 0.37 | 94 | 986.9 |
| 20260505230412 | 50 | 323 | 0.0 | 0.0 | 0.00 | 0.36 | 0.36 | 94 | 987.0 |
| 20260505225908 | 51 | 323 | 0.0 | 0.0 | 0.00 | 0.36 | 0.36 | 94 | 987.0 |
| 20260505225405 | 51 | 318 | 0.0 | 0.0 | 0.00 | 0.36 | 0.36 | 94 | 987.0 |
| 20260505224901 | 51 | 321 | 0.0 | 0.0 | 0.00 | 0.36 | 0.36 | 94 | 986.8 |
| 20260505224358 | 50 | 303 | 0.0 | 0.0 | 0.00 | 0.36 | 0.36 | 94 | 987.0 |
| 20260505223855 | 50 | 297 | 0.0 | 0.0 | 0.00 | 0.36 | 0.36 | 94 | 987.0 |
| 20260505223352 | 50 | 335 | 0.0 | 0.0 | 0.00 | 0.36 | 0.36 | 93 | 987.0 |
| 20260505222847 | 50 | 261 | 0.0 | 0.0 | 0.05 | 0.36 | 0.36 | 93 | 987.3 |
| 20260505222344 | 50 | 328 | 0.0 | 0.0 | 0.05 | 0.36 | 0.36 | 93 | 987.2 |
| 20260505221841 | 50 | 69 | 0.0 | 0.0 | 0.07 | 0.35 | 0.35 | 93 | 987.0 |
| 20260505221338 | 50 | 170 | 0.0 | 0.0 | 0.12 | 0.35 | 0.35 | 92 | 987.2 |
| 20260505220835 | 51 | 334 | 0.0 | 0.0 | 0.12 | 0.34 | 0.34 | 94 | 987.0 |
| 20260505220332 | 51 | 34 | 0.0 | 0.0 | 0.12 | 0.33 | 0.33 | 94 | 986.7 |
| 20260505215830 | 51 | 342 | 0.0 | 0.0 | 0.12 | 0.32 | 0.32 | 93 | 986.8 |
| 20260505215328 | 51 | 340 | 0.0 | 0.0 | 0.14 | 0.31 | 0.31 | 93 | 987.2 |
| 20260505214825 | 51 | 3 | 0.0 | 0.0 | 0.12 | 0.30 | 0.30 | 93 | 986.9 |
| 20260505214323 | 51 | 6 | 0.0 | 0.0 | 0.05 | 0.29 | 0.29 | 93 | 986.8 |
| 20260505213819 | 51 | 354 | 0.0 | 0.0 | 0.07 | 0.28 | 0.28 | 93 | 986.7 |
| 20260505213318 | 51 | 337 | 0.0 | 0.0 | 0.12 | 0.28 | 0.28 | 93 | 986.8 |
| 20260505212813 | 52 | 18 | 0.0 | 0.0 | 0.12 | 0.27 | 0.27 | 93 | 987.0 |
| 20260505212310 | 52 | 357 | 0.0 | 0.0 | 0.07 | 0.26 | 0.26 | 93 | 986.9 |
| 20260505211806 | 52 | 342 | 0.0 | 0.0 | 0.05 | 0.25 | 0.25 | 93 | 986.9 |
| 20260505211304 | 52 | 281 | 0.0 | 0.0 | 0.12 | 0.25 | 0.25 | 93 | 986.6 |
| 20260505210800 | 52 | 342 | 0.0 | 0.0 | 0.12 | 0.24 | 0.24 | 93 | 986.5 |
| 20260505210258 | 52 | 311 | 0.0 | 0.0 | 0.12 | 0.23 | 0.23 | 93 | 986.5 |
| 20260505205754 | 53 | 29 | 0.0 | 0.0 | 0.12 | 0.23 | 0.23 | 93 | 986.5 |
| 20260505205253 | 52 | 24 | 1.0 | 1.0 | 0.12 | 0.22 | 0.22 | 92 | 986.7 |
| 20260505204749 | 53 | 8 | 0.0 | 0.0 | 0.12 | 0.21 | 0.21 | 92 | 986.5 |
| 20260505204247 | 53 | 321 | 0.0 | 0.0 | 0.07 | 0.20 | 0.20 | 92 | 986.7 |
| 20260505203744 | 53 | 313 | 0.0 | 0.0 | 0.07 | 0.19 | 0.19 | 92 | 986.8 |
| 20260505203241 | 53 | 341 | 0.0 | 0.0 | 0.12 | 0.19 | 0.19 | 92 | 986.6 |
| 20260505202736 | 53 | 329 | 0.0 | 0.0 | 0.05 | 0.18 | 0.18 | 91 | 986.6 |
| 20260505202233 | 53 | 298 | 1.0 | 1.0 | 0.07 | 0.17 | 0.17 | 91 | 986.7 |
| 20260505201729 | 53 | 246 | 0.0 | 1.0 | 0.07 | 0.17 | 0.17 | 91 | 987.0 |
| 20260505201227 | 53 | 350 | 0.0 | 0.0 | 0.00 | 0.16 | 0.16 | 91 | 987.0 |
| 20260505200725 | 53 | 340 | 0.0 | 0.0 | 0.00 | 0.16 | 0.16 | 92 | 986.9 |
| 20260505200222 | 52 | 344 | 0.0 | 0.0 | 0.00 | 0.16 | 0.16 | 91 | 987.2 |
| 20260505195717 | 52 | 247 | 0.0 | 1.0 | 0.05 | 0.16 | 0.16 | 90 | 987.1 |
| 20260505195215 | 52 | 280 | 1.0 | 2.0 | 0.05 | 0.16 | 0.16 | 90 | 987.3 |
| 20260505194712 | 52 | 243 | 1.0 | 1.0 | 0.00 | 0.15 | 0.15 | 90 | 987.2 |
| 20260505194209 | 52 | 290 | 2.0 | 3.0 | 0.07 | 0.15 | 0.15 | 91 | 987.3 |
| 20260505193705 | 53 | 283 | 1.0 | 2.0 | 0.07 | 0.15 | 0.15 | 91 | 987.1 |
| 20260505193202 | 53 | 297 | 0.0 | 1.0 | 0.05 | 0.14 | 0.14 | 92 | 987.3 |
| 20260505192701 | 53 | 257 | 2.0 | 2.0 | 0.12 | 0.14 | 0.14 | 91 | 987.3 |
| 20260505192158 | 53 | 277 | 2.0 | 4.0 | 0.07 | 0.13 | 0.13 | 92 | 987.3 |
| 20260505191656 | 53 | 305 | 1.0 | 1.0 | 0.05 | 0.12 | 0.12 | 92 | 987.3 |
| 20260505191154 | 53 | 296 | 2.0 | 2.0 | 0.05 | 0.12 | 0.12 | 91 | 987.3 |
| 20260505190650 | 53 | 265 | 2.0 | 3.0 | 0.07 | 0.11 | 0.11 | 90 | 987.1 |
| 20260505190149 | 53 | 249 | 1.0 | 2.0 | 0.07 | 0.11 | 0.11 | 91 | 987.1 |
| 20260505185647 | 53 | 319 | 1.0 | 1.0 | 0.12 | 0.11 | 0.11 | 90 | 986.7 |
| 20260505185143 | 53 | 238 | 2.0 | 2.0 | 0.17 | 0.10 | 0.10 | 90 | 986.8 |
| 20260505184639 | 54 | 244 | 2.0 | 2.0 | 0.12 | 0.09 | 0.09 | 89 | 987.2 |
| 20260505184136 | 54 | 251 | 0.0 | 1.0 | 0.12 | 0.08 | 0.08 | 89 | 987.1 |
| 20260505183633 | 55 | 256 | 1.0 | 2.0 | 0.14 | 0.07 | 0.07 | 87 | 986.9 |
| 20260505183131 | 55 | 248 | 3.0 | 4.0 | 0.12 | 0.06 | 0.06 | 86 | 986.7 |
| 20260505182627 | 56 | 242 | 2.0 | 2.0 | 0.12 | 0.05 | 0.05 | 86 | 986.8 |
| 20260505182124 | 56 | 263 | 2.0 | 2.0 | 0.12 | 0.04 | 0.04 | 85 | 986.6 |
| 20260505181621 | 56 | 277 | 1.0 | 1.0 | 0.12 | 0.03 | 0.03 | 83 | 986.5 |
| 20260505181118 | 57 | 309 | 0.0 | 0.0 | 0.07 | 0.02 | 0.02 | 81 | 986.3 |
| 20260505180614 | 57 | 275 | 0.0 | 1.0 | 0.05 | 0.01 | 0.01 | 78 | 986.4 |
| 20260505180112 | 57 | 247 | 2.0 | 3.0 | 0.05 | 0.01 | 0.01 | 75 | 986.2 |
| 20260505175607 | 58 | 277 | 2.0 | 2.0 | 0.00 | 0.00 | 0.00 | 73 | 986.1 |
| 20260505175104 | 58 | 237 | 1.0 | 2.0 | 0.00 | 0.00 | 0.00 | 73 | 986.1 |
| 20260505174601 | 59 | 246 | 0.0 | 1.0 | 0.00 | 0.00 | 0.00 | 71 | 986.2 |
| 20260505174056 | 59 | 273 | 1.0 | 1.0 | 0.00 | 0.00 | 0.00 | 69 | 986.1 |
| 20260505173553 | 59 | 238 | 2.0 | 2.0 | 0.00 | 0.00 | 0.00 | 67 | 986.1 |
| 20260505173050 | 60 | 245 | 0.0 | 1.0 | 0.00 | 0.00 | 0.00 | 69 | 986.1 |
| 20260505172548 | 60 | 287 | 0.0 | 0.0 | 0.00 | 0.00 | 0.00 | 69 | 986.3 |
| 20260505172044 | 60 | 262 | 1.0 | 1.0 | 0.00 | 0.00 | 0.00 | 67 | 986.3 |
| 20260505171539 | 59 | 298 | 0.0 | 0.0 | 0.00 | 0.00 | 0.00 | 70 | 986.3 |
| 20260505171036 | 60 | 253 | 1.0 | 2.0 | 0.00 | 0.00 | 0.00 | 71 | 986.5 |
| 20260505170533 | 60 | 282 | 0.0 | 0.0 | 0.00 | 0.00 | 0.00 | 72 | 986.2 |
| 20260505170029 | 60 | 293 | 0.0 | 1.0 | 0.00 | 0.00 | 0.00 | 73 | 986.3 |
| 20260505165525 | 60 | 1 | 2.0 | 2.0 | 0.00 | 0.00 | 0.00 | 73 | 986.2 |
| 20260505165021 | 60 | 268 | 2.0 | 3.0 | 0.00 | 0.00 | 0.00 | 72 | 986.2 |
| 20260505164517 | 60 | 338 | 1.0 | 1.0 | 0.00 | 0.00 | 0.00 | 73 | 986.4 |
| 20260505164015 | 61 | 237 | 2.0 | 3.0 | 0.00 | 0.00 | 0.00 | 73 | 986.4 |
| 20260505163513 | 61 | 289 | 1.0 | 2.0 | 0.00 | 0.00 | 0.00 | 72 | 986.3 |
| 20260505163010 | 61 | 257 | 2.0 | 3.0 | 0.00 | 0.00 | 0.00 | 71 | 986.3 |
| 20260505162503 | 61 | 319 | 2.0 | 4.0 | 0.00 | 0.00 | 0.00 | 72 | 986.3 |
| 20260505162000 | 61 | 267 | 3.0 | 6.0 | 0.00 | 0.00 | 0.00 | 71 | 986.2 |
| 20260505161456 | 61 | 267 | 2.0 | 2.0 | 0.00 | 0.00 | 0.00 | 72 | 986.4 |
| 20260505160954 | 61 | 277 | 3.0 | 4.0 | 0.00 | 0.00 | 0.00 | 71 | 986.2 |
| 20260505160452 | 61 | 241 | 4.0 | 4.0 | 0.00 | 0.00 | 0.00 | 72 | 986.4 |
| 20260505152928 | 62 | 245 | 4.0 | 6.0 | 0.00 | 0.00 | 0.00 | 70 | 986.0 |
| 20260505152426 | 62 | 234 | 3.0 | 4.0 | 0.00 | 0.00 | 0.00 | 71 | 986.1 |
| 20260505151925 | 62 | 246 | 5.0 | 7.0 | 0.00 | 0.00 | 0.00 | 71 | 986.1 |
| 20260505151422 | 62 | 301 | 5.0 | 7.0 | 0.00 | 0.00 | 0.00 | 70 | 985.9 |
| 20260505150919 | 63 | 307 | 4.0 | 6.0 | 0.00 | 0.00 | 0.00 | 71 | 985.9 |
| 20260505150416 | 63 | 221 | 7.0 | 9.0 | 0.00 | 0.00 | 0.00 | 69 | 985.5 |